Hourly Data Report for October 03, 2017

All times are specified in Local Standard Time (LST). Add 1 hour to adjust for Daylight Saving Time where and when it is observed.

TORONTO INTL A
ONTARIO

43°40'36.000" N
79°37'50.000" W
173.40 m
6158731
71624
YYZ

Download Data

Hourly Data (October 2017)
Hourly Data Report for October 3, 2017
Temp Definition
°C
Dew Point Temp Definition
°C
Rel Hum Definition
%
Wind Dir Definition
10's deg

Wind Spd Definition
km/h
Visibility Definition
km
Stn Press Definition
kPa
Hmdx Definition


Wind Chill Definition


Weather Definition


TIME
00:00 Legend Double Dagger 10.9 8.1 83 2 8 24.1 100.84     LegendNANA
01:00 Legend Double Dagger 10.4 7.5 82 1 5 24.1 100.82     Mainly Clear
02:00 Legend Double Dagger 9.2 7.0 86 33 11 24.1 100.83     LegendNANA
03:00 Legend Double Dagger 10.1 7.5 84 1 7 24.1 100.81     LegendNANA
04:00 Legend Double Dagger 9.2 7.3 87 3 4 24.1 100.86     Mainly Clear
05:00 Legend Double Dagger 9.3 7.4 88 1 6 24.1 100.93     LegendNANA
06:00 Legend Double Dagger 9.4 7.8 90 36 1 24.1 100.94     LegendNANA
07:00 Legend Double Dagger 9.1 7.2 88 30 3 24.1 101.02     Mainly Clear
08:00 Legend Double Dagger 13.7 11.1 85 36 2 24.1 101.02     LegendNANA
09:00 Legend Double Dagger 17.0 12.3 74 16 4 24.1 101.02     LegendNANA
10:00 Legend Double Dagger 19.5 11.9 61 19 8 24.1 101.02     Mainly Clear
11:00 Legend Double Dagger 21.4 10.8 51 19 11 24.1 100.96     LegendNANA
12:00 Legend Double Dagger 22.4 12.5 53 14 13 24.1 100.92 25   LegendNANA
13:00 Legend Double Dagger 23.3 11.8 48 17 18 24.1 100.84 25   Mainly Clear
14:00 Legend Double Dagger 23.5 12.1 48 15 18 24.1 100.80 26   LegendNANA
15:00 Legend Double Dagger 23.4 11.7 47 14 17 24.1 100.73 26   LegendNANA
16:00 Legend Double Dagger 22.5 12.7 54 13 16 24.1 100.70 25   Mainly Clear
17:00 Legend Double Dagger 21.5 12.6 57 13 15 24.1 100.67     LegendNANA
18:00 Legend Double Dagger 21.8 9.6 45 18 13 24.1 100.66     LegendNANA
19:00 Legend Double Dagger 21.9 8.4 42 19 10 24.1 100.67     Mainly Clear
20:00 Legend Double Dagger 21.4 8.9 44 19 7 24.1 100.69     LegendNANA
21:00 Legend Double Dagger 19.8 9.5 51 16 6 24.1 100.66     LegendNANA
22:00 Legend Double Dagger 19.4 10.1 55 19 7 24.1 100.64     Mainly Clear
23:00 Legend Double Dagger 20.3 10.8 54 20 10 24.1 100.60     LegendNANA

Notes on Data Quality.

Legend

  • E = Estimated
  • M = Missing
  • NA = Not Available
  • ‡ = Partner data that is not subject to review by the National Climate Archives
Date modified: